Covington, KY

8:49 AM EST on December 09, 2019 (GMT -0500)
Cincinnati-Northern KY International

Weather History for KCVG - October, 2019

Change the Weather History Date:

Tuesday, October 29, 2019

  Actual Average Record
Temperature  
Mean Temperature 54 °F 52 °F  
Max Temperature 62 °F 62 °F 83 °F (1927)
Min Temperature 47 °F 42 °F 20 °F (1925)
Degree Days  
Heating Degree Days 10 14  
Month to date heating degree days 185 276  
Since 1 July heating degree days 185 334  
Cooling Degree Days 0 0  
Month to date cooling degree days 55 16  
Year to date cooling degree days 1497 1121  
Growing Degree Days 4 (Base 50)    
Moisture  
Dew Point 49 °F    
Average Humidity 82    
Maximum Humidity 96    
Minimum Humidity 64    
Precipitation  
Precipitation 0.00 in 0.11 in 1.84 in (1883)
Month to date precipitation 2.21 3.08  
Year to date precipitation 44.63 35.50  
Snow  
Snow 0.00 in 0.10 in 0.00 in ()
Month to date snowfall 0.0 0.4  
Since 1 July snowfall 0.0 0.4  
Since 1 September snowfall 0.0 0.4  
Snow Depth 0.00 in    
Sea Level Pressure  
Sea Level Pressure 30.13 in    
Wind  
Wind Speed 4 mph ()    
Max Wind Speed 12 mph    
Max Gust Speed 14 mph    
Visibility 8.1 miles    
Events      
T = Trace of Precipitation, MM = Missing Value Source: Averaged Metar Reports

Daily Weather History Graph

Daily Weather History Graph

Search for Another Location

Airport or City:

Astronomy

Oct. 29, 2019 Rise Set
Actual Time 8:02 AM EDT 6:41 PM EDT
Civil Twilight 7:35 AM EDT 7:09 PM EDT
Nautical Twilight 7:03 AM EDT 7:40 PM EDT
Astronomical Twilight 6:32 AM EDT 8:11 PM EDT
Moon 9:34 AM EDT (10/29) 8:05 PM EDT (10/29)
Length of Visible Light 11h 34m
Length of Day
10h 38m
Waxing Crescent, 3% of the Moon is Illuminated
Oct 29
Waxing Crescent
Nov 4
First Quarter
Nov 12
Full
Nov 19
Last Quarter
Nov 26
New

Hourly Weather History & Observations

Time (EDT) Temp. Dew Point Humidity Pressure Visibility Wind Dir Wind Speed Gust Speed Precip Events Conditions
12:52 AM 51.1 °F 48.0 °F 89% 30.04 in 9.0 mi West 5.8 mph - N/A   Clear
1:52 AM 48.0 °F 46.0 °F 93% 30.05 in 6.0 mi SW 3.5 mph - N/A   Partly Cloudy
2:52 AM 50.0 °F 46.9 °F 89% 30.05 in 4.0 mi Calm Calm - N/A   Mostly Cloudy
3:52 AM 51.1 °F 48.0 °F 89% 30.04 in 5.0 mi Calm Calm - N/A   Overcast
4:17 AM 50.0 °F 48.9 °F 96% 30.05 in 4.0 mi SW 3.5 mph - N/A   Overcast
4:52 AM 52.0 °F 50.0 °F 93% 30.06 in 6.0 mi WSW 4.6 mph - N/A   Overcast
5:35 AM 53.1 °F 50.0 °F 89% 30.08 in 8.0 mi WSW 6.9 mph - N/A   Overcast
5:52 AM 53.1 °F 50.0 °F 89% 30.07 in 7.0 mi WSW 4.6 mph - N/A   Overcast
6:14 AM 53.1 °F 50.0 °F 89% 30.09 in 7.0 mi SW 3.5 mph - N/A   Overcast
6:25 AM 53.1 °F 50.0 °F 89% 30.08 in 8.0 mi South 3.5 mph - N/A   Overcast
6:43 AM 50.0 °F 46.9 °F 89% 30.08 in 6.0 mi South 5.8 mph - N/A   Mostly Cloudy
6:52 AM 50.0 °F 48.0 °F 93% 30.08 in 6.0 mi South 4.6 mph - N/A   Scattered Clouds
7:02 AM 50.0 °F 48.0 °F 93% 30.09 in 6.0 mi South 3.5 mph - N/A   Mostly Cloudy
7:52 AM 52.0 °F 50.0 °F 93% 30.10 in 7.0 mi South 4.6 mph - N/A   Overcast
8:52 AM 53.1 °F 50.0 °F 89% 30.12 in 7.0 mi SSW 4.6 mph - N/A   Overcast
9:52 AM 54.0 °F 50.0 °F 86% 30.15 in 8.0 mi SW 6.9 mph - N/A   Overcast
10:52 AM 55.0 °F 50.0 °F 83% 30.17 in 10.0 mi SSW 9.2 mph - N/A   Overcast
11:52 AM 57.0 °F 48.9 °F 74% 30.18 in 10.0 mi SW 9.2 mph - N/A   Overcast
12:52 PM 57.9 °F 50.0 °F 75% 30.19 in 10.0 mi SW 5.8 mph - N/A   Overcast
1:52 PM 59.0 °F 50.0 °F 72% 30.17 in 10.0 mi SSW 6.9 mph - N/A   Overcast
2:52 PM 60.1 °F 50.0 °F 69% 30.15 in 10.0 mi SSE 8.1 mph - N/A   Overcast
3:52 PM 60.1 °F 48.9 °F 67% 30.16 in 10.0 mi South 4.6 mph - N/A   Overcast
4:52 PM 60.1 °F 48.9 °F 67% 30.17 in 10.0 mi South 8.1 mph - N/A   Overcast
5:52 PM 59.0 °F 48.9 °F 69% 30.17 in 10.0 mi South 6.9 mph - N/A   Overcast
6:52 PM 59.0 °F 48.9 °F 69% 30.19 in 10.0 mi SSW 4.6 mph - N/A   Overcast
7:08 PM 57.9 °F 48.9 °F 72% 30.19 in 10.0 mi SW 3.5 mph - N/A   Overcast
7:52 PM 57.9 °F 48.9 °F 72% 30.19 in 10.0 mi SW 4.6 mph - N/A   Overcast
8:52 PM 55.9 °F 48.9 °F 77% 30.19 in 10.0 mi Calm Calm - N/A   Mostly Cloudy
9:52 PM 54.0 °F 48.9 °F 83% 30.19 in 9.0 mi Calm Calm - N/A   Mostly Cloudy
10:52 PM 54.0 °F 48.0 °F 80% 30.19 in 9.0 mi Calm Calm - N/A   Mostly Cloudy
11:52 PM 53.1 °F 46.9 °F 80% 30.18 in 9.0 mi Calm Calm - N/A   Overcast